GSAT-19 (42747 NORAD) Tracking and Keplerian Element Data

This shows tracking and keplerian element data for the satellite.

Feedback or suggestion? Click here.




ElementValue
Catalog42747
NameGSAT-19
Epoch Orbit1584
Epoch Day269.75119108
Epoch Year2021
RAAN100.0076
Inclination0.0312
Eccentricity0.0004783
Argument of Perigee18.8496
Mean Anonmoly205.2401
Mean Motion1.00272211
Decay Rate1.23E-06
L11 42747U 17031A 21269.75119108 .00000123 00000-0 00000-0 0 9994
L22 42747 0.0312 100.0076 0004783 18.8496 205.2401 1.00272211 15842

Live tracking and technical data element details for GSAT-19 (NORAD 42747). GSAT-19 can be tracked NOW for your location showing map with azimuth and elevation plus other details from your city location.

Track the satellite on the map from your city or location and see movement details for azimuth, elevation, latitude, longitude, range, height, and movement on the map or in text.







IsCatalogInMostPopularTable: catalog: 42747, numindb: 529
Update: records affected: 1



GetName: 42747 GSAT-19

Hit Count: updated at: Tue, 28 Sep 2021 16:13:20 GMT